Time,TemperatureF,DewpointF,PressureIn,WindDirection,WindDirectionDegrees,WindSpeedMPH,WindSpeedGustMPH,Humidity,HourlyPrecipIn,Conditions,Clouds,dailyrainin,SolarRadiationWatts/m^2,SoftwareType,DateUTC
2013-06-15 00:01:00,53.5,35.3,29.98,South,169,0.0,0.0,50,0.00,,---,0.00,0.00,VWS V14.01,2013-06-15 07:01:00,
2013-06-15 00:06:00,53.5,36.3,29.98,South,177,2.0,3.0,52,0.00,,---,0.00,0.00,VWS V14.01,2013-06-15 07:06:00,
2013-06-15 00:11:00,53.8,36.6,29.98,SSE,159,2.0,4.0,52,0.00,,---,0.00,0.00,VWS V14.01,2013-06-15 07:11:00,
2013-06-15 00:16:00,54.1,36.9,29.97,SSW,202,0.0,4.0,52,0.00,,---,0.00,0.00,VWS V14.01,2013-06-15 07:16:00,
2013-06-15 00:21:00,54.3,37.1,29.98,South,180,0.0,4.0,52,0.00,,---,0.00,0.00,VWS V14.01,2013-06-15 07:21:00,
2013-06-15 00:26:00,54.4,37.2,29.97,South,172,1.0,4.0,52,0.00,,---,0.00,0.00,VWS V14.01,2013-06-15 07:26:00,
2013-06-15 00:31:00,54.4,37.2,29.97,South,190,0.0,2.0,52,0.00,,---,0.00,0.00,VWS V14.01,2013-06-15 07:31:00,
2013-06-15 00:36:00,54.4,37.2,29.97,SSE,163,0.0,3.0,52,0.00,,---,0.00,0.00,VWS V14.01,2013-06-15 07:36:00,
2013-06-15 00:41:00,54.4,37.2,29.97,SSW,205,0.0,4.0,52,0.00,,---,0.00,0.00,VWS V14.01,2013-06-15 07:41:00,
2013-06-15 00:46:00,54.4,37.6,29.97,SSW,203,2.0,4.0,53,0.00,,---,0.00,0.00,VWS V14.01,2013-06-15 07:46:00,
2013-06-15 00:51:00,54.4,37.6,29.97,SW,224,0.0,4.0,53,0.00,,---,0.00,0.00,VWS V14.01,2013-06-15 07:51:00,
2013-06-15 00:56:00,54.4,37.6,29.97,SW,219,0.0,4.0,53,0.00,,---,0.00,0.00,VWS V14.01,2013-06-15 07:56:00,
2013-06-15 01:01:00,54.3,37.5,29.97,SSW,202,2.0,3.0,53,0.00,,---,0.00,0.00,VWS V14.01,2013-06-15 08:01:00,
2013-06-15 01:06:00,54.2,37.5,29.96,SSW,201,2.0,3.0,53,0.00,,---,0.00,0.00,VWS V14.01,2013-06-15 08:06:00,
2013-06-15 01:11:00,54.2,37.5,29.96,SSW,195,1.0,3.0,53,0.00,,---,0.00,0.00,VWS V14.01,2013-06-15 08:11:00,
2013-06-15 01:16:00,54.1,37.4,29.96,South,173,2.0,3.0,53,0.00,,---,0.00,0.00,VWS V14.01,2013-06-15 08:16:00,
2013-06-15 01:21:00,53.9,37.2,29.96,SSW,194,2.0,4.0,53,0.00,,---,0.00,0.00,VWS V14.01,2013-06-15 08:21:00,
2013-06-15 01:26:00,53.7,37.0,29.96,South,185,1.0,4.0,53,0.00,,---,0.00,0.00,VWS V14.01,2013-06-15 08:26:00,
2013-06-15 01:31:00,53.6,37.4,29.95,South,180,0.0,2.0,54,0.00,,---,0.00,0.00,VWS V14.01,2013-06-15 08:31:00,
2013-06-15 01:36:00,53.4,37.2,29.95,South,189,0.0,2.0,54,0.00,,---,0.00,0.00,VWS V14.01,2013-06-15 08:36:00,
2013-06-15 01:41:00,53.1,36.9,29.95,SSW,206,0.0,3.0,54,0.00,,---,0.00,0.00,VWS V14.01,2013-06-15 08:41:00,
2013-06-15 01:46:00,52.7,37.5,29.95,SSW,194,0.0,3.0,56,0.00,,---,0.00,0.00,VWS V14.01,2013-06-15 08:46:00,
2013-06-15 01:51:00,52.4,37.6,29.95,SSW,200,0.0,3.0,57,0.00,,---,0.00,0.00,VWS V14.01,2013-06-15 08:51:00,
2013-06-15 01:56:00,52.5,37.3,29.95,SW,219,1.0,4.0,56,0.00,,---,0.00,0.00,VWS V14.01,2013-06-15 08:56:00,
2013-06-15 02:01:00,52.6,37.8,29.95,SW,231,1.0,4.0,57,0.00,,---,0.00,0.00,VWS V14.01,2013-06-15 09:01:00,
2013-06-15 02:06:00,52.7,37.9,29.95,SSW,194,0.0,5.0,57,0.00,,---,0.00,0.00,VWS V14.01,2013-06-15 09:06:00,
2013-06-15 02:11:00,52.6,37.8,29.95,SW,224,2.0,5.0,57,0.00,,---,0.00,0.00,VWS V14.01,2013-06-15 09:11:00,
2013-06-15 02:16:00,52.8,38.0,29.94,SW,227,4.0,5.0,57,0.00,,---,0.00,0.00,VWS V14.01,2013-06-15 09:16:00,
2013-06-15 02:21:00,52.7,38.3,29.94,SSW,204,0.0,5.0,58,0.00,,---,0.00,0.00,VWS V14.01,2013-06-15 09:21:00,
2013-06-15 02:26:00,52.2,38.3,29.94,SW,217,0.0,5.0,59,0.00,,---,0.00,0.00,VWS V14.01,2013-06-15 09:26:00,
2013-06-15 02:31:00,51.7,37.8,29.94,SW,217,0.0,0.0,59,0.00,,---,0.00,0.00,VWS V14.01,2013-06-15 09:31:00,
2013-06-15 02:36:00,51.6,38.2,29.94,SSW,194,0.0,2.0,60,0.00,,---,0.00,0.00,VWS V14.01,2013-06-15 09:36:00,
2013-06-15 02:41:00,51.3,37.9,29.94,SSW,196,0.0,3.0,60,0.00,,---,0.00,0.00,VWS V14.01,2013-06-15 09:41:00,
2013-06-15 02:46:00,50.8,37.8,29.94,WSW,244,0.0,3.0,61,0.00,,---,0.00,0.00,VWS V14.01,2013-06-15 09:46:00,
2013-06-15 02:51:00,50.4,38.3,29.94,SSW,196,0.0,3.0,63,0.00,,---,0.00,0.00,VWS V14.01,2013-06-15 09:51:00,
2013-06-15 02:56:00,50.1,38.4,29.94,SSW,211,0.0,3.0,64,0.00,,---,0.00,0.00,VWS V14.01,2013-06-15 09:56:00,
2013-06-15 03:01:00,50.0,37.9,29.94,SSW,211,0.0,0.0,63,0.00,,---,0.00,0.00,VWS V14.01,2013-06-15 10:01:00,
2013-06-15 03:06:00,49.8,38.1,29.94,SSW,211,0.0,0.0,64,0.00,,---,0.00,0.00,VWS V14.01,2013-06-15 10:06:00,
2013-06-15 03:11:00,49.6,37.9,29.94,North,5,0.0,2.0,64,0.00,,---,0.00,0.00,VWS V14.01,2013-06-15 10:11:00,
2013-06-15 03:16:00,49.3,37.7,29.94,North,350,1.0,2.0,64,0.00,,---,0.00,0.00,VWS V14.01,2013-06-15 10:16:00,
2013-06-15 03:21:00,49.0,37.8,29.94,North,350,0.0,2.0,65,0.00,,---,0.00,0.00,VWS V14.01,2013-06-15 10:21:00,
2013-06-15 03:26:00,48.7,37.9,29.94,North,350,0.0,2.0,66,0.00,,---,0.00,0.00,VWS V14.01,2013-06-15 10:26:00,
2013-06-15 03:31:00,48.4,37.6,29.94,North,350,0.0,0.0,66,0.00,,---,0.00,0.00,VWS V14.01,2013-06-15 10:31:00,
2013-06-15 03:36:00,48.3,37.9,29.93,NW,306,3.0,3.0,67,0.00,,---,0.00,0.00,VWS V14.01,2013-06-15 10:36:00,
2013-06-15 03:41:00,48.0,37.2,29.93,NW,306,0.0,3.0,66,0.00,,---,0.00,0.00,VWS V14.01,2013-06-15 10:41:00,
2013-06-15 03:46:00,47.7,37.3,29.93,NW,306,1.0,3.0,67,0.00,,---,0.00,0.00,VWS V14.01,2013-06-15 10:46:00,
2013-06-15 03:51:00,47.4,37.0,29.93,NW,306,0.0,3.0,67,0.00,,---,0.00,0.00,VWS V14.01,2013-06-15 10:51:00,
2013-06-15 03:56:00,47.2,37.2,29.93,NW,306,0.0,3.0,68,0.00,,---,0.00,0.00,VWS V14.01,2013-06-15 10:56:00,
2013-06-15 04:01:00,47.0,37.0,29.93,NW,306,0.0,0.0,68,0.00,,---,0.00,0.00,VWS V14.01,2013-06-15 11:01:00,
2013-06-15 04:06:00,46.9,36.9,29.93,NW,307,0.0,0.0,68,0.00,,---,0.00,0.00,VWS V14.01,2013-06-15 11:06:00,
2013-06-15 04:11:00,46.8,37.2,29.93,NW,307,0.0,0.0,69,0.00,,---,0.00,0.00,VWS V14.01,2013-06-15 11:11:00,
2013-06-15 04:16:00,46.6,37.0,29.93,NW,307,0.0,2.0,69,0.00,,---,0.00,0.00,VWS V14.01,2013-06-15 11:16:00,
2013-06-15 04:21:00,46.5,36.9,29.93,NW,306,2.0,2.0,69,0.00,,---,0.00,0.00,VWS V14.01,2013-06-15 11:21:00,
2013-06-15 04:26:00,46.4,37.2,29.92,NW,306,0.0,2.0,70,0.00,,---,0.00,0.00,VWS V14.01,2013-06-15 11:26:00,
2013-06-15 04:31:00,46.2,37.0,29.92,NW,307,0.0,0.0,70,0.00,,---,0.00,0.00,VWS V14.01,2013-06-15 11:31:00,
2013-06-15 04:36:00,46.1,36.9,29.92,NW,306,0.0,1.0,70,0.00,,---,0.00,0.00,VWS V14.01,2013-06-15 11:36:00,
2013-06-15 04:41:00,46.1,36.9,29.92,NW,307,0.0,1.0,70,0.00,,---,0.00,0.00,VWS V14.01,2013-06-15 11:41:00,
2013-06-15 04:46:00,46.1,37.2,29.92,NW,306,1.0,2.0,71,0.00,,---,0.00,0.00,VWS V14.01,2013-06-15 11:46:00,
2013-06-15 04:51:00,45.9,37.0,29.92,NW,306,0.0,2.0,71,0.00,,---,0.00,0.00,VWS V14.01,2013-06-15 11:51:00,
2013-06-15 04:56:00,45.8,37.3,29.92,NW,306,0.0,2.0,72,0.00,,---,0.00,0.00,VWS V14.01,2013-06-15 11:56:00,
2013-06-15 05:02:00,45.6,37.5,29.92,NW,306,1.0,1.0,73,0.00,,---,0.00,0.00,VWS V14.01,2013-06-15 12:02:00,
2013-06-15 05:07:00,45.5,37.4,29.92,NW,306,0.0,1.0,73,0.00,,---,0.00,0.00,VWS V14.01,2013-06-15 12:07:00,
2013-06-15 05:12:00,45.5,37.4,29.92,NW,306,1.0,2.0,73,0.00,,---,0.00,0.00,VWS V14.01,2013-06-15 12:12:00,
2013-06-15 05:17:00,45.5,37.7,29.92,NW,306,0.0,2.0,74,0.00,,---,0.00,0.00,VWS V14.01,2013-06-15 12:17:00,
2013-06-15 05:22:00,45.4,37.6,29.92,NW,306,0.0,2.0,74,0.00,,---,0.00,5.00,VWS V14.01,2013-06-15 12:22:00,
2013-06-15 05:27:00,45.4,37.6,29.92,NW,306,0.0,2.0,74,0.00,,---,0.00,7.00,VWS V14.01,2013-06-15 12:27:00,
2013-06-15 05:32:00,45.4,37.6,29.92,NW,306,1.0,2.0,74,0.00,,---,0.00,7.00,VWS V14.01,2013-06-15 12:32:00,
2013-06-15 05:37:00,45.5,38.0,29.92,NW,306,1.0,2.0,75,0.00,,---,0.00,9.00,VWS V14.01,2013-06-15 12:37:00,
2013-06-15 05:42:00,45.5,38.0,29.92,NW,306,1.0,2.0,75,0.00,,---,0.00,11.00,VWS V14.01,2013-06-15 12:42:00,
2013-06-15 05:47:00,45.5,38.0,29.92,NW,306,0.0,2.0,75,0.00,,---,0.00,12.00,VWS V14.01,2013-06-15 12:47:00,
2013-06-15 05:52:00,45.5,38.0,29.92,NW,306,0.0,2.0,75,0.00,,---,0.00,14.00,VWS V14.01,2013-06-15 12:52:00,
2013-06-15 05:57:00,45.6,38.2,29.92,NW,306,0.0,2.0,75,0.00,,---,0.00,16.00,VWS V14.01,2013-06-15 12:57:00,
2013-06-15 06:02:00,45.7,38.2,29.92,NW,306,0.0,0.0,75,0.00,,---,0.00,16.00,VWS V14.01,2013-06-15 13:02:00,
2013-06-15 06:07:00,45.8,38.3,29.92,NW,306,0.0,0.0,75,0.00,,---,0.00,18.00,VWS V14.01,2013-06-15 13:07:00,
2013-06-15 06:12:00,45.9,38.4,29.92,NW,306,0.0,0.0,75,0.00,,---,0.00,19.00,VWS V14.01,2013-06-15 13:12:00,
2013-06-15 06:17:00,46.0,38.5,29.92,NW,306,0.0,0.0,75,0.00,,---,0.00,21.00,VWS V14.01,2013-06-15 13:17:00,
2013-06-15 06:22:00,46.2,38.7,29.92,NW,306,0.0,0.0,75,0.00,,---,0.00,21.00,VWS V14.01,2013-06-15 13:22:00,
2013-06-15 06:27:00,46.3,38.8,29.92,NW,307,0.0,0.0,75,0.00,,---,0.00,23.00,VWS V14.01,2013-06-15 13:27:00,
2013-06-15 06:32:00,46.5,39.0,29.92,NW,306,0.0,0.0,75,0.00,,---,0.00,23.00,VWS V14.01,2013-06-15 13:32:00,
2013-06-15 06:37:00,46.8,39.3,29.92,NW,306,0.0,0.0,75,0.00,,---,0.00,25.00,VWS V14.01,2013-06-15 13:37:00,
2013-06-15 06:42:00,47.0,39.5,29.92,NW,306,0.0,0.0,75,0.00,,---,0.00,25.00,VWS V14.01,2013-06-15 13:42:00,
2013-06-15 06:47:00,47.2,39.7,29.92,NW,306,0.0,0.0,75,0.00,,---,0.00,26.00,VWS V14.01,2013-06-15 13:47:00,
2013-06-15 06:52:00,47.4,39.5,29.92,NW,306,0.0,0.0,74,0.00,,---,0.00,26.00,VWS V14.01,2013-06-15 13:52:00,
2013-06-15 06:57:00,47.6,39.7,29.92,NW,307,0.0,0.0,74,0.00,,---,0.00,28.00,VWS V14.01,2013-06-15 13:57:00,
2013-06-15 07:02:00,47.9,39.7,29.92,NW,306,0.0,0.0,73,0.00,,---,0.00,35.00,VWS V14.01,2013-06-15 14:02:00,
2013-06-15 07:07:00,48.1,39.9,29.92,NW,306,0.0,0.0,73,0.00,,---,0.00,32.00,VWS V14.01,2013-06-15 14:07:00,
2013-06-15 07:12:00,48.3,40.4,29.92,NW,306,0.0,0.0,74,0.00,,---,0.00,33.00,VWS V14.01,2013-06-15 14:12:00,
2013-06-15 07:17:00,48.4,40.2,29.92,NW,307,0.0,0.0,73,0.00,,---,0.00,30.00,VWS V14.01,2013-06-15 14:17:00,
2013-06-15 07:22:00,48.5,39.9,29.92,NW,307,0.0,0.0,72,0.00,,---,0.00,32.00,VWS V14.01,2013-06-15 14:22:00,
2013-06-15 07:27:00,48.7,39.7,29.92,NW,307,0.0,0.0,71,0.00,,---,0.00,37.00,VWS V14.01,2013-06-15 14:27:00,
2013-06-15 07:32:00,49.0,40.0,29.91,North,5,0.0,0.0,71,0.00,,---,0.00,32.00,VWS V14.01,2013-06-15 14:32:00,
2013-06-15 07:37:00,49.2,39.8,29.91,North,5,0.0,0.0,70,0.00,,---,0.00,33.00,VWS V14.01,2013-06-15 14:37:00,
2013-06-15 07:42:00,49.4,40.0,29.91,North,5,0.0,0.0,70,0.00,,---,0.00,40.00,VWS V14.01,2013-06-15 14:42:00,
2013-06-15 07:47:00,49.6,40.2,29.91,North,5,0.0,0.0,70,0.00,,---,0.00,33.00,VWS V14.01,2013-06-15 14:47:00,
2013-06-15 07:52:00,50.0,39.1,29.91,North,5,0.0,0.0,66,0.00,,---,0.00,139.00,VWS V14.01,2013-06-15 14:52:00,
2013-06-15 07:57:00,50.4,39.9,29.91,North,5,0.0,0.0,67,0.00,,---,0.00,40.00,VWS V14.01,2013-06-15 14:57:00,
2013-06-15 08:02:00,50.8,39.1,29.91,North,5,0.0,0.0,64,0.00,,---,0.00,60.00,VWS V14.01,2013-06-15 15:02:00,
2013-06-15 08:07:00,51.1,39.8,29.91,North,5,0.0,0.0,65,0.00,,---,0.00,72.00,VWS V14.01,2013-06-15 15:07:00,
2013-06-15 08:12:00,51.4,40.0,29.91,North,5,0.0,0.0,65,0.00,,---,0.00,411.00,VWS V14.01,2013-06-15 15:12:00,
2013-06-15 08:17:00,51.8,39.6,29.91,SE,127,0.0,0.0,63,0.00,,---,0.00,388.00,VWS V14.01,2013-06-15 15:17:00,
2013-06-15 08:22:00,52.1,39.9,29.91,SE,146,0.0,0.0,63,0.00,,---,0.00,439.00,VWS V14.01,2013-06-15 15:22:00,
2013-06-15 08:27:00,52.4,39.8,29.91,SE,146,0.0,1.0,62,0.00,,---,0.00,454.00,VWS V14.01,2013-06-15 15:27:00,
2013-06-15 08:32:00,52.9,40.2,29.91,SSE,159,0.0,1.0,62,0.00,,---,0.00,469.00,VWS V14.01,2013-06-15 15:32:00,
2013-06-15 08:37:00,53.4,39.9,29.91,SE,140,0.0,1.0,60,0.00,,---,0.00,485.00,VWS V14.01,2013-06-15 15:37:00,
2013-06-15 08:42:00,53.9,39.9,29.90,ENE,66,1.0,2.0,59,0.00,,---,0.00,499.00,VWS V14.01,2013-06-15 15:42:00,
2013-06-15 08:47:00,54.4,40.4,29.90,ENE,61,0.0,2.0,59,0.00,,---,0.00,515.00,VWS V14.01,2013-06-15 15:47:00,
2013-06-15 08:52:00,55.0,40.5,29.90,NW,322,0.0,2.0,58,0.00,,---,0.00,517.00,VWS V14.01,2013-06-15 15:52:00,
2013-06-15 08:57:00,55.4,40.4,29.90,East,86,0.0,2.0,57,0.00,,---,0.00,541.00,VWS V14.01,2013-06-15 15:57:00,
2013-06-15 09:02:00,55.8,40.4,29.90,SE,136,0.0,1.0,56,0.00,,---,0.00,557.00,VWS V14.01,2013-06-15 16:02:00,
2013-06-15 09:07:00,56.3,39.9,29.90,WSW,247,0.0,2.0,54,0.00,,---,0.00,570.00,VWS V14.01,2013-06-15 16:07:00,
2013-06-15 09:12:00,56.9,40.0,29.90,ESE,114,0.0,2.0,53,0.00,,---,0.00,587.00,VWS V14.01,2013-06-15 16:12:00,
2013-06-15 09:17:00,57.2,39.8,29.90,South,172,0.0,3.0,52,0.00,,---,0.00,599.00,VWS V14.01,2013-06-15 16:17:00,
2013-06-15 09:22:00,57.4,38.9,29.90,SSW,204,0.0,3.0,50,0.00,,---,0.00,613.00,VWS V14.01,2013-06-15 16:22:00,
2013-06-15 09:27:00,58.1,39.6,29.90,WSW,238,0.0,3.0,50,0.00,,---,0.00,626.00,VWS V14.01,2013-06-15 16:27:00,
2013-06-15 09:32:00,58.6,40.5,29.90,East,83,0.0,2.0,51,0.00,,---,0.00,640.00,VWS V14.01,2013-06-15 16:32:00,
2013-06-15 09:37:00,58.9,40.3,29.90,SSE,159,2.0,3.0,50,0.00,,---,0.00,652.00,VWS V14.01,2013-06-15 16:37:00,
2013-06-15 09:42:00,59.3,39.6,29.90,East,94,1.0,5.0,48,0.00,,---,0.00,666.00,VWS V14.01,2013-06-15 16:42:00,
2013-06-15 09:47:00,59.6,39.4,29.90,SE,126,0.0,5.0,47,0.00,,---,0.00,679.00,VWS V14.01,2013-06-15 16:47:00,
2013-06-15 09:52:00,59.9,39.6,29.90,SSE,159,2.0,5.0,47,0.00,,---,0.00,691.00,VWS V14.01,2013-06-15 16:52:00,
2013-06-15 09:57:00,60.3,38.9,29.90,South,170,0.0,5.0,45,0.00,,---,0.00,703.00,VWS V14.01,2013-06-15 16:57:00,
2013-06-15 10:02:00,60.7,38.1,29.90,SSE,153,0.0,2.0,43,0.00,,---,0.00,715.00,VWS V14.01,2013-06-15 17:02:00,
2013-06-15 10:07:00,61.1,38.5,29.90,ESE,119,2.0,2.0,43,0.00,,---,0.00,728.00,VWS V14.01,2013-06-15 17:07:00,
2013-06-15 10:12:00,61.4,38.1,29.90,North,360,0.0,4.0,42,0.00,,---,0.00,740.00,VWS V14.01,2013-06-15 17:12:00,
2013-06-15 10:17:00,62.0,38.7,29.89,North,360,0.0,4.0,42,0.00,,---,0.00,756.00,VWS V14.01,2013-06-15 17:17:00,
2013-06-15 10:22:00,62.5,37.9,29.89,ENE,74,0.0,4.0,40,0.00,,---,0.00,765.00,VWS V14.01,2013-06-15 17:22:00,
2013-06-15 10:27:00,62.9,36.9,29.89,NE,55,1.0,5.0,38,0.00,,---,0.00,775.00,VWS V14.01,2013-06-15 17:27:00,
2013-06-15 10:32:00,63.2,37.2,29.89,SW,223,0.0,3.0,38,0.00,,---,0.00,788.00,VWS V14.01,2013-06-15 17:32:00,
2013-06-15 10:37:00,63.9,37.1,29.89,NW,307,1.0,5.0,37,0.00,,---,0.00,795.00,VWS V14.01,2013-06-15 17:37:00,
2013-06-15 10:42:00,64.6,37.1,29.89,East,84,5.0,5.0,36,0.00,,---,0.00,809.00,VWS V14.01,2013-06-15 17:42:00,
2013-06-15 10:47:00,65.1,34.5,29.89,NW,317,6.0,6.0,32,0.00,,---,0.00,819.00,VWS V14.01,2013-06-15 17:47:00,
2013-06-15 10:52:00,65.7,34.3,29.89,NE,43,3.0,6.0,31,0.00,,---,0.00,828.00,VWS V14.01,2013-06-15 17:52:00,
2013-06-15 10:57:00,66.6,34.2,29.89,NW,308,4.0,6.0,30,0.00,,---,0.00,835.00,VWS V14.01,2013-06-15 17:57:00,
2013-06-15 11:02:00,66.9,36.1,29.89,SSE,163,0.0,2.0,32,0.00,,---,0.00,844.00,VWS V14.01,2013-06-15 18:02:00,
2013-06-15 11:07:00,67.0,36.2,29.88,West,281,1.0,4.0,32,0.00,,---,0.00,854.00,VWS V14.01,2013-06-15 18:07:00,
2013-06-15 11:12:00,67.5,36.6,29.88,West,273,0.0,5.0,32,0.00,,---,0.00,863.00,VWS V14.01,2013-06-15 18:12:00,
2013-06-15 11:17:00,68.0,34.6,29.88,NW,319,0.0,7.0,29,0.00,,---,0.00,874.00,VWS V14.01,2013-06-15 18:17:00,
2013-06-15 11:22:00,68.2,36.4,29.88,ENE,63,1.0,7.0,31,0.00,,---,0.00,881.00,VWS V14.01,2013-06-15 18:22:00,
2013-06-15 11:27:00,68.5,36.7,29.88,ESE,121,0.0,7.0,31,0.00,,---,0.00,891.00,VWS V14.01,2013-06-15 18:27:00,
2013-06-15 11:32:00,69.0,36.3,29.88,NNE,15,2.0,5.0,30,0.00,,---,0.00,896.00,VWS V14.01,2013-06-15 18:32:00,
2013-06-15 11:37:00,69.5,35.0,29.87,WNW,301,3.0,5.0,28,0.00,,---,0.00,904.00,VWS V14.01,2013-06-15 18:37:00,
2013-06-15 11:42:00,69.9,35.3,29.87,West,276,1.0,5.0,28,0.00,,---,0.00,912.00,VWS V14.01,2013-06-15 18:42:00,
2013-06-15 11:47:00,70.4,35.8,29.87,NNE,31,2.0,5.0,28,0.00,,---,0.00,918.00,VWS V14.01,2013-06-15 18:47:00,
2013-06-15 11:52:00,70.8,37.0,29.87,East,80,0.0,5.0,29,0.00,,---,0.00,926.00,VWS V14.01,2013-06-15 18:52:00,
2013-06-15 11:57:00,71.1,35.5,29.87,NNE,24,0.0,5.0,27,0.00,,---,0.00,932.00,VWS V14.01,2013-06-15 18:57:00,
2013-06-15 12:02:00,71.6,34.9,29.86,WNW,298,2.0,3.0,26,0.00,,---,0.00,933.00,VWS V14.01,2013-06-15 19:02:00,
2013-06-15 12:07:00,72.1,35.4,29.86,SE,144,2.0,4.0,26,0.00,,---,0.00,939.00,VWS V14.01,2013-06-15 19:07:00,
2013-06-15 12:12:00,72.6,34.8,29.86,North,355,3.0,5.0,25,0.00,,---,0.00,944.00,VWS V14.01,2013-06-15 19:12:00,
2013-06-15 12:17:00,72.9,35.0,29.85,ESE,107,2.0,6.0,25,0.00,,---,0.00,946.00,VWS V14.01,2013-06-15 19:17:00,
2013-06-15 12:22:00,73.6,34.6,29.86,ENE,73,2.0,6.0,24,0.00,,---,0.00,954.00,VWS V14.01,2013-06-15 19:22:00,
2013-06-15 12:27:00,74.1,34.0,29.85,West,275,3.0,6.0,23,0.00,,---,0.00,958.00,VWS V14.01,2013-06-15 19:27:00,
2013-06-15 12:32:00,74.2,34.1,29.85,NNE,29,1.0,2.0,23,0.00,,---,0.00,962.00,VWS V14.01,2013-06-15 19:32:00,
2013-06-15 12:37:00,74.7,34.5,29.85,East,79,0.0,9.0,23,0.00,,---,0.00,970.00,VWS V14.01,2013-06-15 19:37:00,
2013-06-15 12:42:00,75.4,34.0,29.85,ESE,112,1.0,9.0,22,0.00,,---,0.00,974.00,VWS V14.01,2013-06-15 19:42:00,
2013-06-15 12:47:00,75.8,34.3,29.85,ENE,76,5.0,9.0,22,0.00,,---,0.00,958.00,VWS V14.01,2013-06-15 19:47:00,
2013-06-15 12:52:00,76.3,34.7,29.84,ESE,121,0.0,9.0,22,0.00,,---,0.00,974.00,VWS V14.01,2013-06-15 19:52:00,
2013-06-15 12:57:00,76.8,32.7,29.85,North,5,3.0,9.0,20,0.00,,---,0.00,974.00,VWS V14.01,2013-06-15 19:57:00,
2013-06-15 13:02:00,77.3,33.1,29.84,WNW,302,1.0,4.0,20,0.00,,---,0.00,976.00,VWS V14.01,2013-06-15 20:02:00,
2013-06-15 13:07:00,77.9,33.6,29.84,NNE,26,6.0,6.0,20,0.00,,---,0.00,977.00,VWS V14.01,2013-06-15 20:07:00,
2013-06-15 13:12:00,78.5,28.6,29.84,NNE,19,2.0,10.0,16,0.00,,---,0.00,979.00,VWS V14.01,2013-06-15 20:12:00,
2013-06-15 13:17:00,78.8,27.3,29.84,North,351,7.0,10.0,15,0.00,,---,0.00,984.00,VWS V14.01,2013-06-15 20:17:00,
2013-06-15 13:22:00,79.4,29.3,29.83,ENE,61,3.0,10.0,16,0.00,,---,0.00,991.00,VWS V14.01,2013-06-15 20:22:00,
2013-06-15 13:27:00,79.7,29.6,29.83,ESE,113,4.0,10.0,16,0.00,,---,0.00,944.00,VWS V14.01,2013-06-15 20:27:00,
2013-06-15 13:32:00,80.1,32.8,29.83,ENE,75,0.0,7.0,18,0.00,,---,0.00,970.00,VWS V14.01,2013-06-15 20:32:00,
2013-06-15 13:37:00,80.2,28.4,29.83,NE,42,5.0,11.0,15,0.00,,---,0.00,944.00,VWS V14.01,2013-06-15 20:37:00,
2013-06-15 13:42:00,80.6,33.2,29.83,ESE,112,5.0,11.0,18,0.00,,---,0.00,974.00,VWS V14.01,2013-06-15 20:42:00,
2013-06-15 13:47:00,81.1,32.2,29.83,ENE,74,8.0,11.0,17,0.00,,---,0.00,944.00,VWS V14.01,2013-06-15 20:47:00,
2013-06-15 13:52:00,81.1,27.4,29.82,SE,138,0.0,12.0,14,0.00,,---,0.00,954.00,VWS V14.01,2013-06-15 20:52:00,
2013-06-15 13:57:00,81.3,32.4,29.83,SSE,153,2.0,12.0,17,0.00,,---,0.00,925.00,VWS V14.01,2013-06-15 20:57:00,
2013-06-15 14:02:00,81.3,33.8,29.82,SE,127,0.0,2.0,18,0.00,,---,0.00,965.00,VWS V14.01,2013-06-15 21:02:00,
2013-06-15 14:07:00,81.4,33.9,29.82,East,96,6.0,7.0,18,0.00,,---,0.00,963.00,VWS V14.01,2013-06-15 21:07:00,
2013-06-15 14:12:00,82.1,31.5,29.82,SSE,155,5.0,10.0,16,0.00,,---,0.00,974.00,VWS V14.01,2013-06-15 21:12:00,
2013-06-15 14:17:00,82.2,34.5,29.82,South,173,1.0,10.0,18,0.00,,---,0.00,984.00,VWS V14.01,2013-06-15 21:17:00,
2013-06-15 14:22:00,82.2,33.1,29.81,East,84,6.0,18.0,17,0.00,,---,0.00,1028.00,VWS V14.01,2013-06-15 21:22:00,
2013-06-15 14:27:00,81.9,31.4,29.81,East,90,0.0,18.0,16,0.00,,---,0.00,246.00,VWS V14.01,2013-06-15 21:27:00,
2013-06-15 14:32:00,81.5,32.5,29.81,NE,53,2.0,5.0,17,0.00,,---,0.00,244.00,VWS V14.01,2013-06-15 21:32:00,
2013-06-15 14:37:00,81.0,32.1,29.81,WSW,254,2.0,5.0,17,0.00,,---,0.00,287.00,VWS V14.01,2013-06-15 21:37:00,
2013-06-15 14:42:00,80.4,30.1,29.80,SW,225,3.0,5.0,16,0.00,,---,0.00,1058.00,VWS V14.01,2013-06-15 21:42:00,
2013-06-15 14:47:00,80.8,33.4,29.80,ENE,69,3.0,5.0,18,0.00,,---,0.00,962.00,VWS V14.01,2013-06-15 21:47:00,
2013-06-15 14:52:00,81.8,34.2,29.81,ENE,77,4.0,8.0,18,0.00,,---,0.00,278.00,VWS V14.01,2013-06-15 21:52:00,
2013-06-15 14:57:00,82.0,32.9,29.81,NW,311,3.0,8.0,17,0.00,,---,0.00,329.00,VWS V14.01,2013-06-15 21:57:00,
2013-06-15 15:02:00,81.4,33.9,29.80,SW,233,5.0,6.0,18,0.00,,---,0.00,287.00,VWS V14.01,2013-06-15 22:02:00,
2013-06-15 15:07:00,80.6,30.3,29.80,SSW,209,2.0,6.0,16,0.00,,---,0.00,258.00,VWS V14.01,2013-06-15 22:07:00,
2013-06-15 15:12:00,80.0,32.7,29.80,South,179,3.0,10.0,18,0.00,,---,0.00,220.00,VWS V14.01,2013-06-15 22:12:00,
2013-06-15 15:17:00,79.6,32.4,29.80,WSW,254,3.0,10.0,18,0.00,,---,0.00,232.00,VWS V14.01,2013-06-15 22:17:00,
2013-06-15 15:22:00,78.9,31.8,29.80,SSW,194,2.0,10.0,18,0.00,,---,0.00,230.00,VWS V14.01,2013-06-15 22:22:00,
2013-06-15 15:27:00,78.7,31.7,29.80,SSW,200,1.0,10.0,18,0.00,,---,0.00,262.00,VWS V14.01,2013-06-15 22:27:00,
2013-06-15 15:32:00,78.5,31.5,29.80,SSW,206,4.0,4.0,18,0.00,,---,0.00,262.00,VWS V14.01,2013-06-15 22:32:00,
2013-06-15 15:37:00,78.5,31.5,29.80,SW,234,3.0,6.0,18,0.00,,---,0.00,329.00,VWS V14.01,2013-06-15 22:37:00,
2013-06-15 15:42:00,78.9,31.8,29.80,WSW,238,5.0,10.0,18,0.00,,---,0.00,285.00,VWS V14.01,2013-06-15 22:42:00,
2013-06-15 15:47:00,79.0,31.9,29.80,WSW,255,3.0,10.0,18,0.00,,---,0.00,953.00,VWS V14.01,2013-06-15 22:47:00,
2013-06-15 15:52:00,79.0,31.9,29.80,SW,232,3.0,12.0,18,0.00,,---,0.00,251.00,VWS V14.01,2013-06-15 22:52:00,
2013-06-15 15:57:00,78.6,31.6,29.80,WSW,238,1.0,12.0,18,0.00,,---,0.00,243.00,VWS V14.01,2013-06-15 22:57:00,
2013-06-15 16:02:00,78.5,31.5,29.80,SSW,207,4.0,10.0,18,0.00,,---,0.00,244.00,VWS V14.01,2013-06-15 23:02:00,
2013-06-15 16:07:00,78.5,32.8,29.80,SW,234,1.0,10.0,19,0.00,,---,0.00,264.00,VWS V14.01,2013-06-15 23:07:00,
2013-06-15 16:12:00,78.8,31.8,29.80,SW,229,4.0,10.0,18,0.00,,---,0.00,218.00,VWS V14.01,2013-06-15 23:12:00,
2013-06-15 16:17:00,78.6,31.6,29.80,South,184,4.0,10.0,18,0.00,,---,0.00,225.00,VWS V14.01,2013-06-15 23:17:00,
2013-06-15 16:22:00,79.1,32.0,29.80,SW,236,4.0,10.0,18,0.00,,---,0.00,271.00,VWS V14.01,2013-06-15 23:22:00,
2013-06-15 16:27:00,78.9,31.8,29.80,West,269,6.0,10.0,18,0.00,,---,0.00,364.00,VWS V14.01,2013-06-15 23:27:00,
2013-06-15 16:32:00,78.7,35.5,29.80,SE,140,5.0,7.0,21,0.00,,---,0.00,870.00,VWS V14.01,2013-06-15 23:32:00,
2013-06-15 16:37:00,79.6,38.6,29.80,SSE,161,7.0,7.0,23,0.00,,---,0.00,796.00,VWS V14.01,2013-06-15 23:37:00,
2013-06-15 16:42:00,80.7,38.4,29.80,South,188,8.0,10.0,22,0.00,,---,0.00,661.00,VWS V14.01,2013-06-15 23:42:00,
2013-06-15 16:47:00,81.4,40.1,29.80,South,183,6.0,10.0,23,0.00,,---,0.00,524.00,VWS V14.01,2013-06-15 23:47:00,
2013-06-15 16:52:00,81.4,40.1,29.80,SSW,198,5.0,12.0,23,0.00,,---,0.00,563.00,VWS V14.01,2013-06-15 23:52:00,
2013-06-15 16:57:00,81.3,41.1,29.80,South,180,2.0,12.0,24,0.00,,---,0.00,566.00,VWS V14.01,2013-06-15 23:57:00,
2013-06-15 17:02:00,80.9,38.5,29.80,SSE,158,5.0,7.0,22,0.00,,---,0.00,162.00,VWS V14.01,2013-06-16 00:02:00,
2013-06-15 17:07:00,79.9,36.5,29.80,SSE,153,7.0,13.0,21,0.00,,---,0.00,197.00,VWS V14.01,2013-06-16 00:07:00,
2013-06-15 17:12:00,79.6,36.3,29.80,South,175,6.0,13.0,21,0.00,,---,0.00,592.00,VWS V14.01,2013-06-16 00:12:00,
2013-06-15 17:17:00,80.0,42.1,29.81,SE,140,9.0,13.0,26,0.00,,---,0.00,570.00,VWS V14.01,2013-06-16 00:17:00,
2013-06-15 17:22:00,80.0,43.0,29.81,South,191,8.0,13.0,27,0.00,,---,0.00,176.00,VWS V14.01,2013-06-16 00:22:00,
2013-06-15 17:27:00,78.9,43.1,29.81,South,190,2.0,13.0,28,0.00,,---,0.00,271.00,VWS V14.01,2013-06-16 00:27:00,
2013-06-15 17:32:00,78.2,43.4,29.81,SSE,155,3.0,10.0,29,0.00,,---,0.00,185.00,VWS V14.01,2013-06-16 00:32:00,
2013-06-15 17:37:00,77.3,44.3,29.82,SSE,152,5.0,10.0,31,0.00,,---,0.00,181.00,VWS V14.01,2013-06-16 00:37:00,
2013-06-15 17:42:00,76.5,44.5,29.82,SSE,148,5.0,12.0,32,0.00,,---,0.00,160.00,VWS V14.01,2013-06-16 00:42:00,
2013-06-15 17:47:00,75.8,44.7,29.82,SSE,150,10.0,15.0,33,0.00,,---,0.00,174.00,VWS V14.01,2013-06-16 00:47:00,
2013-06-15 17:52:00,75.2,45.7,29.82,South,186,6.0,15.0,35,0.00,,---,0.00,188.00,VWS V14.01,2013-06-16 00:52:00,
2013-06-15 17:57:00,74.9,46.2,29.82,ESE,115,3.0,15.0,36,0.00,,---,0.00,213.00,VWS V14.01,2013-06-16 00:57:00,
2013-06-15 18:02:00,75.3,45.8,29.82,ESE,111,3.0,6.0,35,0.00,,---,0.00,207.00,VWS V14.01,2013-06-16 01:02:00,
2013-06-15 18:07:00,75.6,46.0,29.82,SSE,158,6.0,8.0,35,0.00,,---,0.00,104.00,VWS V14.01,2013-06-16 01:07:00,
2013-06-15 18:12:00,75.6,45.3,29.83,South,191,2.0,9.0,34,0.00,,---,0.00,113.00,VWS V14.01,2013-06-16 01:12:00,
2013-06-15 18:17:00,75.3,45.0,29.83,South,170,3.0,10.0,34,0.00,,---,0.00,107.00,VWS V14.01,2013-06-16 01:17:00,
2013-06-15 18:22:00,74.9,45.4,29.83,South,186,5.0,12.0,35,0.00,,---,0.00,114.00,VWS V14.01,2013-06-16 01:22:00,
2013-06-15 18:27:00,74.5,45.1,29.83,SSE,162,6.0,12.0,35,0.00,,---,0.00,83.00,VWS V14.01,2013-06-16 01:27:00,
2013-06-15 18:32:00,74.0,45.4,29.83,SSE,159,3.0,9.0,36,0.00,,---,0.00,60.00,VWS V14.01,2013-06-16 01:32:00,
2013-06-15 18:37:00,73.6,45.8,29.83,SSE,165,5.0,10.0,37,0.00,,---,0.00,47.00,VWS V14.01,2013-06-16 01:37:00,
2013-06-15 18:42:00,73.1,45.3,29.83,SSE,155,3.0,10.0,37,0.00,,---,0.00,46.00,VWS V14.01,2013-06-16 01:42:00,
2013-06-15 18:47:00,72.7,45.7,29.83,SE,146,5.0,10.0,38,0.00,,---,0.00,51.00,VWS V14.01,2013-06-16 01:47:00,
2013-06-15 18:52:00,72.3,46.0,29.84,South,191,3.0,10.0,39,0.00,,---,0.00,54.00,VWS V14.01,2013-06-16 01:52:00,
2013-06-15 18:57:00,72.0,45.7,29.83,SSW,200,3.0,10.0,39,0.00,,---,0.00,60.00,VWS V14.01,2013-06-16 01:57:00,
2013-06-15 19:02:00,71.8,45.5,29.84,SE,146,2.0,5.0,39,0.00,,---,0.00,76.00,VWS V14.01,2013-06-16 02:02:00,
2013-06-15 19:07:00,71.7,46.8,29.84,SE,144,2.0,5.0,41,0.00,,---,0.00,118.00,VWS V14.01,2013-06-16 02:07:00,
2013-06-15 19:12:00,71.8,46.2,29.84,SSE,167,4.0,5.0,40,0.00,,---,0.00,67.00,VWS V14.01,2013-06-16 02:12:00,
2013-06-15 19:17:00,71.8,46.2,29.84,SSE,168,3.0,5.0,40,0.00,,---,0.00,58.00,VWS V14.01,2013-06-16 02:17:00,
2013-06-15 19:22:00,71.6,46.7,29.84,South,169,0.0,5.0,41,0.00,,---,0.00,54.00,VWS V14.01,2013-06-16 02:22:00,
2013-06-15 19:27:00,71.2,46.3,29.84,SSE,155,3.0,5.0,41,0.00,,---,0.00,56.00,VWS V14.01,2013-06-16 02:27:00,
2013-06-15 19:32:00,70.9,46.7,29.84,SSW,207,0.0,3.0,42,0.00,,---,0.00,53.00,VWS V14.01,2013-06-16 02:32:00,
2013-06-15 19:37:00,70.6,46.4,29.85,South,175,3.0,3.0,42,0.00,,---,0.00,42.00,VWS V14.01,2013-06-16 02:37:00,
2013-06-15 19:42:00,70.3,46.2,29.85,WSW,239,0.0,3.0,42,0.00,,---,0.00,32.00,VWS V14.01,2013-06-16 02:42:00,
2013-06-15 19:47:00,69.9,46.4,29.85,South,190,2.0,3.0,43,0.00,,---,0.00,33.00,VWS V14.01,2013-06-16 02:47:00,
2013-06-15 19:52:00,69.6,46.1,29.85,South,184,0.0,4.0,43,0.00,,---,0.00,37.00,VWS V14.01,2013-06-16 02:52:00,
2013-06-15 19:57:00,69.3,46.5,29.85,South,173,4.0,5.0,44,0.00,,---,0.00,35.00,VWS V14.01,2013-06-16 02:57:00,
2013-06-15 20:02:00,68.9,46.1,29.86,SW,232,5.0,5.0,44,0.00,,---,0.00,33.00,VWS V14.01,2013-06-16 03:02:00,
2013-06-15 20:07:00,68.7,46.5,29.86,South,185,3.0,5.0,45,0.00,,---,0.00,28.00,VWS V14.01,2013-06-16 03:07:00,
2013-06-15 20:12:00,68.5,46.3,29.86,SSE,164,1.0,5.0,45,0.00,,---,0.00,21.00,VWS V14.01,2013-06-16 03:12:00,
2013-06-15 20:17:00,68.3,46.7,29.86,South,184,0.0,5.0,46,0.00,,---,0.00,16.00,VWS V14.01,2013-06-16 03:17:00,
2013-06-15 20:22:00,68.1,46.6,29.86,SSW,196,0.0,6.0,46,0.00,,---,0.00,14.00,VWS V14.01,2013-06-16 03:22:00,
2013-06-15 20:27:00,67.7,46.8,29.86,South,175,4.0,6.0,47,0.00,,---,0.00,12.00,VWS V14.01,2013-06-16 03:27:00,
2013-06-15 20:32:00,67.5,47.1,29.86,South,183,3.0,7.0,48,0.00,,---,0.00,9.00,VWS V14.01,2013-06-16 03:32:00,
2013-06-15 20:37:00,67.2,47.4,29.86,SSE,155,1.0,7.0,49,0.00,,---,0.00,7.00,VWS V14.01,2013-06-16 03:37:00,
2013-06-15 20:42:00,67.0,47.8,29.87,South,175,2.0,7.0,50,0.00,,---,0.00,5.00,VWS V14.01,2013-06-16 03:42:00,
2013-06-15 20:47:00,66.6,47.4,29.87,SSW,213,3.0,7.0,50,0.00,,---,0.00,0.00,VWS V14.01,2013-06-16 03:47:00,
2013-06-15 20:52:00,66.3,47.7,29.88,SSW,209,2.0,7.0,51,0.00,,---,0.00,0.00,VWS V14.01,2013-06-16 03:52:00,
2013-06-15 20:57:00,66.0,47.4,29.88,South,184,3.0,8.0,51,0.00,,---,0.00,0.00,VWS V14.01,2013-06-16 03:57:00,
2013-06-15 21:01:00,65.9,47.3,29.88,South,188,0.0,1.0,51,0.00,,---,0.00,0.00,VWS V14.01,2013-06-16 04:01:00,
2013-06-15 21:06:00,65.6,47.5,29.88,South,190,2.0,4.0,52,0.00,,---,0.00,0.00,VWS V14.01,2013-06-16 04:06:00,
2013-06-15 21:11:00,65.4,47.3,29.88,SW,226,2.0,5.0,52,0.00,,---,0.00,0.00,VWS V14.01,2013-06-16 04:11:00,
2013-06-15 21:16:00,65.2,47.2,29.88,South,190,3.0,6.0,52,0.00,,---,0.00,0.00,VWS V14.01,2013-06-16 04:16:00,
2013-06-15 21:21:00,64.9,46.9,29.88,SSE,165,0.0,6.0,52,0.00,,---,0.00,0.00,VWS V14.01,2013-06-16 04:21:00,
2013-06-15 21:26:00,64.8,46.8,29.89,SSE,163,4.0,6.0,52,0.00,,---,0.00,0.00,VWS V14.01,2013-06-16 04:26:00,
2013-06-15 21:31:00,64.6,46.6,29.89,South,173,2.0,2.0,52,0.00,,---,0.00,0.00,VWS V14.01,2013-06-16 04:31:00,
2013-06-15 21:36:00,64.4,46.9,29.89,South,173,2.0,4.0,53,0.00,,---,0.00,0.00,VWS V14.01,2013-06-16 04:36:00,
2013-06-15 21:41:00,64.2,46.7,29.89,SSW,203,0.0,4.0,53,0.00,,---,0.00,0.00,VWS V14.01,2013-06-16 04:41:00,
2013-06-15 21:46:00,64.0,46.5,29.89,South,180,1.0,4.0,53,0.00,,---,0.00,0.00,VWS V14.01,2013-06-16 04:46:00,
2013-06-15 21:51:00,63.8,46.4,29.89,SSE,162,1.0,5.0,53,0.00,,---,0.00,0.00,VWS V14.01,2013-06-16 04:51:00,
2013-06-15 21:56:00,63.5,46.1,29.90,South,188,1.0,5.0,53,0.00,,---,0.00,0.00,VWS V14.01,2013-06-16 04:56:00,
2013-06-15 22:01:00,63.4,46.5,29.90,South,182,2.0,2.0,54,0.00,,---,0.00,0.00,VWS V14.01,2013-06-16 05:01:00,
2013-06-15 22:06:00,63.1,46.2,29.90,South,190,2.0,4.0,54,0.00,,---,0.00,0.00,VWS V14.01,2013-06-16 05:06:00,
2013-06-15 22:11:00,63.0,46.1,29.90,South,178,0.0,5.0,54,0.00,,---,0.00,0.00,VWS V14.01,2013-06-16 05:11:00,
2013-06-15 22:16:00,62.7,46.3,29.90,South,188,0.0,5.0,55,0.00,,---,0.00,0.00,VWS V14.01,2013-06-16 05:16:00,
2013-06-15 22:21:00,62.5,46.1,29.90,South,188,0.0,5.0,55,0.00,,---,0.00,0.00,VWS V14.01,2013-06-16 05:21:00,
2013-06-15 22:26:00,62.2,45.8,29.91,SSE,150,1.0,5.0,55,0.00,,---,0.00,0.00,VWS V14.01,2013-06-16 05:26:00,
2013-06-15 22:31:00,62.0,46.1,29.91,South,190,0.0,0.0,56,0.00,,---,0.00,0.00,VWS V14.01,2013-06-16 05:31:00,
2013-06-15 22:36:00,61.9,46.0,29.91,SSW,192,0.0,3.0,56,0.00,,---,0.00,0.00,VWS V14.01,2013-06-16 05:36:00,
2013-06-15 22:41:00,61.8,46.0,29.91,SSW,196,0.0,3.0,56,0.00,,---,0.00,0.00,VWS V14.01,2013-06-16 05:41:00,
2013-06-15 22:46:00,61.5,45.7,29.91,WNW,287,0.0,3.0,56,0.00,,---,0.00,0.00,VWS V14.01,2013-06-16 05:46:00,
2013-06-15 22:51:00,61.2,45.4,29.91,WNW,292,1.0,3.0,56,0.00,,---,0.00,0.00,VWS V14.01,2013-06-16 05:51:00,
2013-06-15 22:56:00,61.0,45.2,29.91,ENE,76,0.0,3.0,56,0.00,,---,0.00,0.00,VWS V14.01,2013-06-16 05:56:00,
2013-06-15 23:01:00,60.9,45.1,29.91,ENE,72,0.0,0.0,56,0.00,,---,0.00,0.00,VWS V14.01,2013-06-16 06:01:00,
2013-06-15 23:06:00,60.7,44.9,29.91,North,5,0.0,1.0,56,0.00,,---,0.00,0.00,VWS V14.01,2013-06-16 06:06:00,
2013-06-15 23:11:00,60.5,44.7,29.91,NNW,338,0.0,2.0,56,0.00,,---,0.00,0.00,VWS V14.01,2013-06-16 06:11:00,
2013-06-15 23:16:00,60.4,44.7,29.91,NE,44,0.0,2.0,56,0.00,,---,0.00,0.00,VWS V14.01,2013-06-16 06:16:00,
2013-06-15 23:21:00,60.2,44.5,29.91,North,350,2.0,3.0,56,0.00,,---,0.00,0.00,VWS V14.01,2013-06-16 06:21:00,
2013-06-15 23:26:00,60.2,44.0,29.91,North,350,2.0,3.0,55,0.00,,---,0.00,0.00,VWS V14.01,2013-06-16 06:26:00,
2013-06-15 23:31:00,60.2,44.0,29.90,NNE,26,0.0,0.0,55,0.00,,---,0.00,0.00,VWS V14.01,2013-06-16 06:31:00,
2013-06-15 23:36:00,60.1,43.9,29.91,NNE,26,1.0,1.0,55,0.00,,---,0.00,0.00,VWS V14.01,2013-06-16 06:36:00,
2013-06-15 23:41:00,60.1,43.4,29.91,WNW,291,0.0,3.0,54,0.00,,---,0.00,0.00,VWS V14.01,2013-06-16 06:41:00,
2013-06-15 23:46:00,60.0,43.3,29.91,WNW,287,2.0,3.0,54,0.00,,---,0.00,0.00,VWS V14.01,2013-06-16 06:46:00,
2013-06-15 23:51:00,60.0,43.3,29.91,SW,217,0.0,3.0,54,0.00,,---,0.00,0.00,VWS V14.01,2013-06-16 06:51:00,
2013-06-15 23:56:00,59.9,42.7,29.91,SW,217,0.0,3.0,53,0.00,,---,0.00,0.00,VWS V14.01,2013-06-16 06:56:00,